Year,Month,Day,Hour,Minute,Value (Times are PST for temperature in C)
2008,08,06,00,00,17.70
2008,08,06,00,01,17.70
2008,08,06,00,02,17.60
2008,08,06,00,03,17.60
2008,08,06,00,04,17.60
2008,08,06,00,05,17.60
2008,08,06,00,06,17.60
2008,08,06,00,07,17.60
2008,08,06,00,08,17.50
2008,08,06,00,09,17.50
2008,08,06,00,10,17.50
2008,08,06,00,11,17.40
2008,08,06,00,12,17.40
2008,08,06,00,13,17.40
2008,08,06,00,14,17.40
2008,08,06,00,15,17.30
2008,08,06,00,16,17.30
2008,08,06,00,17,17.30
2008,08,06,00,18,17.30
2008,08,06,00,19,17.30
2008,08,06,00,20,17.30
2008,08,06,00,21,17.20
2008,08,06,00,22,17.20
2008,08,06,00,23,17.20
2008,08,06,00,24,17.20
2008,08,06,00,25,17.20
2008,08,06,00,26,17.20
2008,08,06,00,27,17.20
2008,08,06,00,28,17.20
2008,08,06,00,29,17.20
2008,08,06,00,30,17.20
2008,08,06,00,31,17.20
2008,08,06,00,32,17.10
2008,08,06,00,33,17.10
2008,08,06,00,34,17.10
2008,08,06,00,35,17.10
2008,08,06,00,36,17.00
2008,08,06,00,37,17.00
2008,08,06,00,38,17.00
2008,08,06,00,39,16.90
2008,08,06,00,40,16.90
2008,08,06,00,41,16.90
2008,08,06,00,42,16.90
2008,08,06,00,43,16.80
2008,08,06,00,44,16.80
2008,08,06,00,45,16.80
2008,08,06,00,46,16.80
2008,08,06,00,47,16.80
2008,08,06,00,48,16.80
2008,08,06,00,49,16.80
2008,08,06,00,50,16.70
2008,08,06,00,51,16.70
2008,08,06,00,52,16.70
2008,08,06,00,53,16.70
2008,08,06,00,54,16.70
2008,08,06,00,55,16.70
2008,08,06,00,56,16.70
2008,08,06,00,57,16.70
2008,08,06,00,58,16.70
2008,08,06,00,59,16.70
2008,08,06,01,00,16.70
2008,08,06,01,01,16.70
2008,08,06,01,02,16.80
2008,08,06,01,03,16.80
2008,08,06,01,04,16.80
2008,08,06,01,05,16.80
2008,08,06,01,06,16.80
2008,08,06,01,07,16.80
2008,08,06,01,08,16.80
2008,08,06,01,09,16.90
2008,08,06,01,10,16.90
2008,08,06,01,11,16.90
2008,08,06,01,12,16.90
2008,08,06,01,13,16.90
2008,08,06,01,14,16.90
2008,08,06,01,15,16.90
2008,08,06,01,16,16.90
2008,08,06,01,17,16.90
2008,08,06,01,18,16.90
2008,08,06,01,19,16.80
2008,08,06,01,20,16.80
2008,08,06,01,21,16.80
2008,08,06,01,22,16.80
2008,08,06,01,23,16.80
2008,08,06,01,24,16.70
2008,08,06,01,25,16.70
2008,08,06,01,26,16.70
2008,08,06,01,27,16.60
2008,08,06,01,28,16.60
2008,08,06,01,29,16.60
2008,08,06,01,30,16.50
2008,08,06,01,31,16.50
2008,08,06,01,32,16.50
2008,08,06,01,33,16.40
2008,08,06,01,34,16.40
2008,08,06,01,35,16.40
2008,08,06,01,36,16.40
2008,08,06,01,37,16.40
2008,08,06,01,38,16.40
2008,08,06,01,39,16.30
2008,08,06,01,40,16.30
2008,08,06,01,41,16.30
2008,08,06,01,42,16.30
2008,08,06,01,43,16.30
2008,08,06,01,44,16.30
2008,08,06,01,45,16.20
2008,08,06,01,46,16.20
2008,08,06,01,47,16.20
2008,08,06,01,48,16.20
2008,08,06,01,49,16.20
2008,08,06,01,50,16.20
2008,08,06,01,51,16.20
2008,08,06,01,52,16.20
2008,08,06,01,53,16.10
2008,08,06,01,54,16.20
2008,08,06,01,55,16.10
2008,08,06,01,56,16.10
2008,08,06,01,57,16.10
2008,08,06,01,58,16.10
2008,08,06,01,59,16.10
2008,08,06,02,00,16.10
2008,08,06,02,01,16.10
2008,08,06,02,02,16.10
2008,08,06,02,03,16.00
2008,08,06,02,04,16.00
2008,08,06,02,05,15.90
2008,08,06,02,06,15.90
2008,08,06,02,07,15.90
2008,08,06,02,08,15.90
2008,08,06,02,09,15.90
2008,08,06,02,10,15.80
2008,08,06,02,11,15.70
2008,08,06,02,12,15.70
2008,08,06,02,13,15.60
2008,08,06,02,14,15.60
2008,08,06,02,15,15.60
2008,08,06,02,16,15.50
2008,08,06,02,17,15.50
2008,08,06,02,18,15.50
2008,08,06,02,19,15.40
2008,08,06,02,20,15.40
2008,08,06,02,21,15.40
2008,08,06,02,22,15.40
2008,08,06,02,23,15.40
2008,08,06,02,24,15.40
2008,08,06,02,25,15.40
2008,08,06,02,26,15.30
2008,08,06,02,27,15.30
2008,08,06,02,28,15.30
2008,08,06,02,29,15.30
2008,08,06,02,30,15.30
2008,08,06,02,31,15.30
2008,08,06,02,32,15.30
2008,08,06,02,33,15.30
2008,08,06,02,34,15.30
2008,08,06,02,35,15.30
2008,08,06,02,36,15.30
2008,08,06,02,37,15.30
2008,08,06,02,38,15.30
2008,08,06,02,39,15.30
2008,08,06,02,40,15.20
2008,08,06,02,41,15.20
2008,08,06,02,42,15.20
2008,08,06,02,43,15.20
2008,08,06,02,44,15.20
2008,08,06,02,45,15.20
2008,08,06,02,46,15.20
2008,08,06,02,47,15.10
2008,08,06,02,48,15.10
2008,08,06,02,49,15.10
2008,08,06,02,50,15.10
2008,08,06,02,51,15.10
2008,08,06,02,52,15.10
2008,08,06,02,53,15.10
2008,08,06,02,54,15.10
2008,08,06,02,55,15.10
2008,08,06,02,56,15.10
2008,08,06,02,57,15.10
2008,08,06,02,58,15.00
2008,08,06,02,59,15.00
2008,08,06,03,00,15.00
2008,08,06,03,01,15.00
2008,08,06,03,02,15.00
2008,08,06,03,03,15.00
2008,08,06,03,04,15.00
2008,08,06,03,05,15.00
2008,08,06,03,06,15.00
2008,08,06,03,07,15.00
2008,08,06,03,08,15.00
2008,08,06,03,09,15.00
2008,08,06,03,10,15.00
2008,08,06,03,11,15.00
2008,08,06,03,12,15.00
2008,08,06,03,13,15.00
2008,08,06,03,14,15.00
2008,08,06,03,15,15.00
2008,08,06,03,16,15.00
2008,08,06,03,17,15.00
2008,08,06,03,18,15.00
2008,08,06,03,19,15.00
2008,08,06,03,20,15.00
2008,08,06,03,21,15.00
2008,08,06,03,22,15.00
2008,08,06,03,23,14.90
2008,08,06,03,24,14.90
2008,08,06,03,25,14.90
2008,08,06,03,26,14.90
2008,08,06,03,27,14.80
2008,08,06,03,28,14.80
2008,08,06,03,29,14.80
2008,08,06,03,30,14.80
2008,08,06,03,31,14.80
2008,08,06,03,32,14.80
2008,08,06,03,33,14.80
2008,08,06,03,34,14.70
2008,08,06,03,35,14.70
2008,08,06,03,36,14.70
2008,08,06,03,37,14.70
2008,08,06,03,38,14.70
2008,08,06,03,39,14.60
2008,08,06,03,40,14.60
2008,08,06,03,41,14.60
2008,08,06,03,42,14.60
2008,08,06,03,43,14.60
2008,08,06,03,44,14.60
2008,08,06,03,45,14.60
2008,08,06,03,46,14.60
2008,08,06,03,47,14.60
2008,08,06,03,48,14.60
2008,08,06,03,49,14.60
2008,08,06,03,50,14.60
2008,08,06,03,51,14.50
2008,08,06,03,52,14.50
2008,08,06,03,53,14.40
2008,08,06,03,54,14.40
2008,08,06,03,55,14.40
2008,08,06,03,56,14.40
2008,08,06,03,57,14.40
2008,08,06,03,58,14.40
2008,08,06,03,59,14.40
2008,08,06,04,00,14.30
2008,08,06,04,01,14.30
2008,08,06,04,02,14.30
2008,08,06,04,03,14.30
2008,08,06,04,04,14.30
2008,08,06,04,05,14.30
2008,08,06,04,06,14.30
2008,08,06,04,07,14.30
2008,08,06,04,08,14.20
2008,08,06,04,09,14.20
2008,08,06,04,10,14.20
2008,08,06,04,11,14.20
2008,08,06,04,12,14.10
2008,08,06,04,13,14.10
2008,08,06,04,14,14.10
2008,08,06,04,15,14.10
2008,08,06,04,16,14.10
2008,08,06,04,17,14.10
2008,08,06,04,18,14.10
2008,08,06,04,19,14.20
2008,08,06,04,20,14.20
2008,08,06,04,21,14.20
2008,08,06,04,22,14.20
2008,08,06,04,23,14.30
2008,08,06,04,24,14.30
2008,08,06,04,25,14.30
2008,08,06,04,26,14.40
2008,08,06,04,27,14.40
2008,08,06,04,28,14.40
2008,08,06,04,29,14.50
2008,08,06,04,30,14.50
2008,08,06,04,31,14.50
2008,08,06,04,32,14.50
2008,08,06,04,33,14.50
2008,08,06,04,34,14.50
2008,08,06,04,35,14.60
2008,08,06,04,36,14.60
2008,08,06,04,37,14.60
2008,08,06,04,38,14.60
2008,08,06,04,39,14.60
2008,08,06,04,40,14.60
2008,08,06,04,41,14.60
2008,08,06,04,42,14.60
2008,08,06,04,43,14.60
2008,08,06,04,44,14.60
2008,08,06,04,45,14.60
2008,08,06,04,46,14.60
2008,08,06,04,47,14.60
2008,08,06,04,48,14.50
2008,08,06,04,49,14.50
2008,08,06,04,50,14.50
2008,08,06,04,51,14.50
2008,08,06,04,52,14.50
2008,08,06,04,53,14.50
2008,08,06,04,54,14.40
2008,08,06,04,55,14.40
2008,08,06,04,56,14.40
2008,08,06,04,57,14.40
2008,08,06,04,58,14.40
2008,08,06,04,59,14.30
2008,08,06,05,00,14.30
2008,08,06,05,01,14.30
2008,08,06,05,02,14.20
2008,08,06,05,03,14.20
2008,08,06,05,04,14.20
2008,08,06,05,05,14.10
2008,08,06,05,06,14.10
2008,08,06,05,07,14.10
2008,08,06,05,08,14.10
2008,08,06,05,09,14.10
2008,08,06,05,10,14.10
2008,08,06,05,11,14.00
2008,08,06,05,12,14.00
2008,08,06,05,13,13.90
2008,08,06,05,14,13.90
2008,08,06,05,15,13.90
2008,08,06,05,16,13.90
2008,08,06,05,17,13.90
2008,08,06,05,18,13.90
2008,08,06,05,19,13.80
2008,08,06,05,20,13.80
2008,08,06,05,21,13.80
2008,08,06,05,22,13.80
2008,08,06,05,23,13.80
2008,08,06,05,24,13.80
2008,08,06,05,25,13.80
2008,08,06,05,26,13.80
2008,08,06,05,27,13.80
2008,08,06,05,28,13.80
2008,08,06,05,29,13.80
2008,08,06,05,30,13.70
2008,08,06,05,31,13.70
2008,08,06,05,32,13.80
2008,08,06,05,33,13.70
2008,08,06,05,34,13.70
2008,08,06,05,35,13.70
2008,08,06,05,36,13.70
2008,08,06,05,37,13.70
2008,08,06,05,38,13.70
2008,08,06,05,39,13.60
2008,08,06,05,40,13.60
2008,08,06,05,41,13.60
2008,08,06,05,42,13.60
2008,08,06,05,43,13.60
2008,08,06,05,44,13.60
2008,08,06,05,45,13.50
2008,08,06,05,46,13.50
2008,08,06,05,47,13.50
2008,08,06,05,48,13.50
2008,08,06,05,49,13.50
2008,08,06,05,50,13.40
2008,08,06,05,51,13.40
2008,08,06,05,52,13.40
2008,08,06,05,53,13.40
2008,08,06,05,54,13.40
2008,08,06,05,55,13.40
2008,08,06,05,56,13.40
2008,08,06,05,57,13.40
2008,08,06,05,58,13.40
2008,08,06,05,59,13.40
2008,08,06,06,00,13.50
2008,08,06,06,01,13.50
2008,08,06,06,02,13.60
2008,08,06,06,03,13.60
2008,08,06,06,04,13.60
2008,08,06,06,05,13.60
2008,08,06,06,06,13.70
2008,08,06,06,07,13.70
2008,08,06,06,08,13.70
2008,08,06,06,09,13.70
2008,08,06,06,10,13.80
2008,08,06,06,11,13.80
2008,08,06,06,12,13.80
2008,08,06,06,13,13.80
2008,08,06,06,14,13.80
2008,08,06,06,15,13.80
2008,08,06,06,16,13.90
2008,08,06,06,17,13.90
2008,08,06,06,18,13.90
2008,08,06,06,19,13.90
2008,08,06,06,20,13.90
2008,08,06,06,21,13.90
2008,08,06,06,22,13.90
2008,08,06,06,23,14.00
2008,08,06,06,24,14.00
2008,08,06,06,25,14.10
2008,08,06,06,26,14.10
2008,08,06,06,27,14.10
2008,08,06,06,28,14.10
2008,08,06,06,29,14.10
2008,08,06,06,30,14.10
2008,08,06,06,31,14.20
2008,08,06,06,32,14.20
2008,08,06,06,33,14.20
2008,08,06,06,34,14.20
2008,08,06,06,35,14.20
2008,08,06,06,36,14.20
2008,08,06,06,37,14.20
2008,08,06,06,38,14.20
2008,08,06,06,39,14.20
2008,08,06,06,40,14.20
2008,08,06,06,41,14.20
2008,08,06,06,42,14.20
2008,08,06,06,43,14.20
2008,08,06,06,44,14.20
2008,08,06,06,45,14.20
2008,08,06,06,46,14.20
2008,08,06,06,47,14.20
2008,08,06,06,48,14.20
2008,08,06,06,49,14.20
2008,08,06,06,50,14.20
2008,08,06,06,51,14.10
2008,08,06,06,52,14.10
2008,08,06,06,53,14.10
2008,08,06,06,54,14.10
2008,08,06,06,55,14.00
2008,08,06,06,56,13.90
2008,08,06,06,57,13.90
2008,08,06,06,58,13.90
2008,08,06,06,59,13.90
2008,08,06,07,00,13.90
2008,08,06,07,01,13.80
2008,08,06,07,02,13.80
2008,08,06,07,03,13.80
2008,08,06,07,04,13.80
2008,08,06,07,05,13.80
2008,08,06,07,06,13.80
2008,08,06,07,07,13.90
2008,08,06,07,08,13.90
2008,08,06,07,09,13.90
2008,08,06,07,10,14.00
2008,08,06,07,11,14.10
2008,08,06,07,12,14.10
2008,08,06,07,13,14.20
2008,08,06,07,14,14.30
2008,08,06,07,15,14.30
2008,08,06,07,16,14.40
2008,08,06,07,17,14.40
2008,08,06,07,18,14.50
2008,08,06,07,19,14.50
2008,08,06,07,20,14.60
2008,08,06,07,21,14.70
2008,08,06,07,22,14.70
2008,08,06,07,23,14.80
2008,08,06,07,24,14.90
2008,08,06,07,25,15.00
2008,08,06,07,26,15.00
2008,08,06,07,27,15.00
2008,08,06,07,28,15.20
2008,08,06,07,29,15.30
2008,08,06,07,30,15.40
2008,08,06,07,31,15.50
2008,08,06,07,32,15.60
2008,08,06,07,33,15.60
2008,08,06,07,34,15.70
2008,08,06,07,35,15.70
2008,08,06,07,36,15.80
2008,08,06,07,37,15.90
2008,08,06,07,38,15.90
2008,08,06,07,39,16.00
2008,08,06,07,40,16.10
2008,08,06,07,41,16.20
2008,08,06,07,42,16.20
2008,08,06,07,43,16.30
2008,08,06,07,44,16.40
2008,08,06,07,45,16.40
2008,08,06,07,46,16.50
2008,08,06,07,47,16.60
2008,08,06,07,48,16.60
2008,08,06,07,49,16.70
2008,08,06,07,50,16.80
2008,08,06,07,51,16.90
2008,08,06,07,52,16.90
2008,08,06,07,53,17.00
2008,08,06,07,54,17.10
2008,08,06,07,55,17.10
2008,08,06,07,56,17.20
2008,08,06,07,57,17.20
2008,08,06,07,58,17.30
2008,08,06,07,59,17.30
2008,08,06,08,00,17.40
2008,08,06,08,01,17.40
2008,08,06,08,02,17.40
2008,08,06,08,03,17.50
2008,08,06,08,04,17.50
2008,08,06,08,05,17.60
2008,08,06,08,06,17.60
2008,08,06,08,07,17.70
2008,08,06,08,08,17.70
2008,08,06,08,09,17.80
2008,08,06,08,10,17.80
2008,08,06,08,11,17.90
2008,08,06,08,12,17.90
2008,08,06,08,13,18.00
2008,08,06,08,14,18.10
2008,08,06,08,15,18.10
2008,08,06,08,16,18.20
2008,08,06,08,17,18.20
2008,08,06,08,18,18.30
2008,08,06,08,19,18.30
2008,08,06,08,20,18.40
2008,08,06,08,21,18.50
2008,08,06,08,22,18.60
2008,08,06,08,23,18.70
2008,08,06,08,24,18.80
2008,08,06,08,25,18.80
2008,08,06,08,26,18.90
2008,08,06,08,27,19.00
2008,08,06,08,28,19.10
2008,08,06,08,29,19.20
2008,08,06,08,30,19.30
2008,08,06,08,31,19.40
2008,08,06,08,32,19.40
2008,08,06,08,33,19.50
2008,08,06,08,34,19.60
2008,08,06,08,35,19.60
2008,08,06,08,36,19.70
2008,08,06,08,37,19.80
2008,08,06,08,38,19.80
2008,08,06,08,39,19.90
2008,08,06,08,40,19.90
2008,08,06,08,41,20.00
2008,08,06,08,42,20.10
2008,08,06,08,43,20.20
2008,08,06,08,44,20.30
2008,08,06,08,45,20.40
2008,08,06,08,46,20.50
2008,08,06,08,47,20.60
2008,08,06,08,48,20.70
2008,08,06,08,49,20.90
2008,08,06,08,50,20.90
2008,08,06,08,51,21.00
2008,08,06,08,52,21.00
2008,08,06,08,53,21.10
2008,08,06,08,54,21.10
2008,08,06,08,55,21.20
2008,08,06,08,56,21.30
2008,08,06,08,57,21.30
2008,08,06,08,58,21.30
2008,08,06,08,59,21.30
2008,08,06,09,00,21.30
2008,08,06,09,01,21.30
2008,08,06,09,02,21.30
2008,08,06,09,03,21.30
2008,08,06,09,04,21.30
2008,08,06,09,05,21.30
2008,08,06,09,06,21.40
2008,08,06,09,07,21.30
2008,08,06,09,08,21.30
2008,08,06,09,09,21.30
2008,08,06,09,10,21.30
2008,08,06,09,11,21.30
2008,08,06,09,12,21.30
2008,08,06,09,13,21.30
2008,08,06,09,14,21.20
2008,08,06,09,15,21.20
2008,08,06,09,16,21.20
2008,08,06,09,17,21.20
2008,08,06,09,18,21.20
2008,08,06,09,19,21.20
2008,08,06,09,20,21.20
2008,08,06,09,21,21.20
2008,08,06,09,22,21.20
2008,08,06,09,23,21.20
2008,08,06,09,24,21.20
2008,08,06,09,25,21.20
2008,08,06,09,26,21.20
2008,08,06,09,27,21.30
2008,08,06,09,28,21.30
2008,08,06,09,29,21.30
2008,08,06,09,30,21.30
2008,08,06,09,31,21.30
2008,08,06,09,32,21.30
2008,08,06,09,33,21.30
2008,08,06,09,34,21.30
2008,08,06,09,35,21.30
2008,08,06,09,36,21.20
2008,08,06,09,37,21.20
2008,08,06,09,38,21.20
2008,08,06,09,39,21.20
2008,08,06,09,40,21.20
2008,08,06,09,41,21.20
2008,08,06,09,42,21.30
2008,08,06,09,43,21.30
2008,08,06,09,44,21.30
2008,08,06,09,45,21.40
2008,08,06,09,46,21.50
2008,08,06,09,47,21.50
2008,08,06,09,48,21.60
2008,08,06,09,49,21.70
2008,08,06,09,50,21.80
2008,08,06,09,51,21.90
2008,08,06,09,52,22.00
2008,08,06,09,53,22.10
2008,08,06,09,54,22.10
2008,08,06,09,55,22.20
2008,08,06,09,56,22.20
2008,08,06,09,57,22.30
2008,08,06,09,58,22.30
2008,08,06,09,59,22.30
2008,08,06,10,00,22.30
2008,08,06,10,01,22.30
2008,08,06,10,02,22.30
2008,08,06,10,03,22.30
2008,08,06,10,04,22.30
2008,08,06,10,05,22.30
2008,08,06,10,06,22.30
2008,08,06,10,07,22.30
2008,08,06,10,08,22.30
2008,08,06,10,09,22.30
2008,08,06,10,10,22.30
2008,08,06,10,11,22.30
2008,08,06,10,12,22.30
2008,08,06,10,13,22.30
2008,08,06,10,14,22.40
2008,08,06,10,15,22.40
2008,08,06,10,16,22.50
2008,08,06,10,17,22.50
2008,08,06,10,18,22.50
2008,08,06,10,19,22.40
2008,08,06,10,20,22.40
2008,08,06,10,21,22.40
2008,08,06,10,22,22.40
2008,08,06,10,23,22.40
2008,08,06,10,24,22.50
2008,08,06,10,25,22.60
2008,08,06,10,26,22.60
2008,08,06,10,27,22.70
2008,08,06,10,28,22.70
2008,08,06,10,29,22.70
2008,08,06,10,30,22.80
2008,08,06,10,31,22.80
2008,08,06,10,32,22.90
2008,08,06,10,33,22.90
2008,08,06,10,34,22.90
2008,08,06,10,35,23.00
2008,08,06,10,36,23.00
2008,08,06,10,37,23.00
2008,08,06,10,38,22.90
2008,08,06,10,39,22.90
2008,08,06,10,40,22.90
2008,08,06,10,41,22.90
2008,08,06,10,42,22.90
2008,08,06,10,43,23.00
2008,08,06,10,44,23.00
2008,08,06,10,45,23.00
2008,08,06,10,46,23.00
2008,08,06,10,47,23.00
2008,08,06,10,48,23.10
2008,08,06,10,49,23.10
2008,08,06,10,50,23.10
2008,08,06,10,51,23.20
2008,08,06,10,52,23.20
2008,08,06,10,53,23.30
2008,08,06,10,54,23.30
2008,08,06,10,55,23.30
2008,08,06,10,56,23.20
2008,08,06,10,57,23.20
2008,08,06,10,58,23.10
2008,08,06,10,59,23.10
2008,08,06,11,00,23.10
2008,08,06,11,01,23.10
2008,08,06,11,02,23.20
2008,08,06,11,03,23.20
2008,08,06,11,04,23.20
2008,08,06,11,05,23.20
2008,08,06,11,06,23.20
2008,08,06,11,07,23.20
2008,08,06,11,08,23.20
2008,08,06,11,09,23.20
2008,08,06,11,10,23.30
2008,08,06,11,11,23.40
2008,08,06,11,12,23.40
2008,08,06,11,13,23.50
2008,08,06,11,14,23.50
2008,08,06,11,15,23.60
2008,08,06,11,16,23.70
2008,08,06,11,17,23.60
2008,08,06,11,18,23.60
2008,08,06,11,19,23.60
2008,08,06,11,20,23.70
2008,08,06,11,21,23.80
2008,08,06,11,22,23.80
2008,08,06,11,23,23.90
2008,08,06,11,24,23.90
2008,08,06,11,25,23.90
2008,08,06,11,26,24.00
2008,08,06,11,27,24.00
2008,08,06,11,28,24.10
2008,08,06,11,29,24.10
2008,08,06,11,30,24.10
2008,08,06,11,31,24.10
2008,08,06,11,32,24.20
2008,08,06,11,33,24.20
2008,08,06,11,34,24.20
2008,08,06,11,35,24.20
2008,08,06,11,36,24.10
2008,08,06,11,37,24.00
2008,08,06,11,38,24.00
2008,08,06,11,39,24.10
2008,08,06,11,40,24.10
2008,08,06,11,41,24.20
2008,08,06,11,42,24.20
2008,08,06,11,43,24.30
2008,08,06,11,44,24.20
2008,08,06,11,45,24.10
2008,08,06,11,46,24.10
2008,08,06,11,47,24.10
2008,08,06,11,48,24.20
2008,08,06,11,49,24.30
2008,08,06,11,50,24.40
2008,08,06,11,51,24.40
2008,08,06,11,52,24.40
2008,08,06,11,53,24.50
2008,08,06,11,54,24.50
2008,08,06,11,55,24.60
2008,08,06,11,56,24.60
2008,08,06,11,57,24.60
2008,08,06,11,58,24.70
2008,08,06,11,59,24.70
2008,08,06,12,00,24.70
2008,08,06,12,01,24.80
2008,08,06,12,02,24.90
2008,08,06,12,03,24.90
2008,08,06,12,04,24.90
2008,08,06,12,05,24.80
2008,08,06,12,06,24.80
2008,08,06,12,07,24.90
2008,08,06,12,08,24.90
2008,08,06,12,09,24.90
2008,08,06,12,10,24.90
2008,08,06,12,11,24.80
2008,08,06,12,12,24.80
2008,08,06,12,13,24.70
2008,08,06,12,14,24.70
2008,08,06,12,15,24.70
2008,08,06,12,16,24.60
2008,08,06,12,17,24.60
2008,08,06,12,18,24.50
2008,08,06,12,19,24.50
2008,08,06,12,20,24.60
2008,08,06,12,21,24.60
2008,08,06,12,22,24.70
2008,08,06,12,23,24.70
2008,08,06,12,24,24.70
2008,08,06,12,25,24.70
2008,08,06,12,26,24.80
2008,08,06,12,27,24.80
2008,08,06,12,28,24.90
2008,08,06,12,29,24.90
2008,08,06,12,30,24.90
2008,08,06,12,31,24.90
2008,08,06,12,32,24.90
2008,08,06,12,33,24.90
2008,08,06,12,34,25.00
2008,08,06,12,35,25.10
2008,08,06,12,36,25.20
2008,08,06,12,37,25.40
2008,08,06,12,38,25.50
2008,08,06,12,39,25.60
2008,08,06,12,40,25.60
2008,08,06,12,41,25.70
2008,08,06,12,42,25.70
2008,08,06,12,43,25.70
2008,08,06,12,44,25.70
2008,08,06,12,45,25.80
2008,08,06,12,46,25.80
2008,08,06,12,47,25.80
2008,08,06,12,48,25.80
2008,08,06,12,49,25.90
2008,08,06,12,50,25.90
2008,08,06,12,51,25.90
2008,08,06,12,52,25.90
2008,08,06,12,53,26.00
2008,08,06,12,54,26.00
2008,08,06,12,55,26.10
2008,08,06,12,56,26.20
2008,08,06,12,57,26.30
2008,08,06,12,58,26.30
2008,08,06,12,59,26.30
2008,08,06,13,00,26.20
2008,08,06,13,01,26.20
2008,08,06,13,02,26.20
2008,08,06,13,03,26.10
2008,08,06,13,04,26.10
2008,08,06,13,05,26.20
2008,08,06,13,06,26.30
2008,08,06,13,07,26.30
2008,08,06,13,08,26.30
2008,08,06,13,09,26.30
2008,08,06,13,10,26.30
2008,08,06,13,11,26.40
2008,08,06,13,12,26.50
2008,08,06,13,13,26.60
2008,08,06,13,14,26.60
2008,08,06,13,15,26.60
2008,08,06,13,16,26.70
2008,08,06,13,17,26.70
2008,08,06,13,18,26.70
2008,08,06,13,19,26.70
2008,08,06,13,20,26.70
2008,08,06,13,21,26.70
2008,08,06,13,22,26.70
2008,08,06,13,23,26.70
2008,08,06,13,24,26.70
2008,08,06,13,25,26.70
2008,08,06,13,26,26.70
2008,08,06,13,27,26.70
2008,08,06,13,28,26.70
2008,08,06,13,29,26.70
2008,08,06,13,30,26.80
2008,08,06,13,31,26.80
2008,08,06,13,32,26.70
2008,08,06,13,33,26.50
2008,08,06,13,34,26.30
2008,08,06,13,35,26.10
2008,08,06,13,36,26.00
2008,08,06,13,37,25.90
2008,08,06,13,38,25.80
2008,08,06,13,39,25.70
2008,08,06,13,40,25.70
2008,08,06,13,41,25.80
2008,08,06,13,42,25.80
2008,08,06,13,43,25.90
2008,08,06,13,44,25.80
2008,08,06,13,45,25.70
2008,08,06,13,46,25.60
2008,08,06,13,47,25.60
2008,08,06,13,48,25.60
2008,08,06,13,49,25.60
2008,08,06,13,50,25.50
2008,08,06,13,51,25.40
2008,08,06,13,52,25.40
2008,08,06,13,53,25.30
2008,08,06,13,54,25.30
2008,08,06,13,55,25.40
2008,08,06,13,56,25.50
2008,08,06,13,57,25.50
2008,08,06,13,58,25.40
2008,08,06,13,59,25.30
2008,08,06,14,00,25.20
2008,08,06,14,01,25.20
2008,08,06,14,02,25.20
2008,08,06,14,03,25.20
2008,08,06,14,04,25.20
2008,08,06,14,05,25.10
2008,08,06,14,06,25.10
2008,08,06,14,07,25.10
2008,08,06,14,08,25.10
2008,08,06,14,09,25.10
2008,08,06,14,10,25.30
2008,08,06,14,11,25.40
2008,08,06,14,12,25.50
2008,08,06,14,13,25.50
2008,08,06,14,14,25.50
2008,08,06,14,15,25.60
2008,08,06,14,16,25.50
2008,08,06,14,17,25.50
2008,08,06,14,18,25.40
2008,08,06,14,19,25.20
2008,08,06,14,20,25.10
2008,08,06,14,21,25.10
2008,08,06,14,22,25.10
2008,08,06,14,23,25.10
2008,08,06,14,24,25.10
2008,08,06,14,25,25.20
2008,08,06,14,26,25.20
2008,08,06,14,27,25.20
2008,08,06,14,28,25.20
2008,08,06,14,29,25.20
2008,08,06,14,30,25.20
2008,08,06,14,31,25.10
2008,08,06,14,32,25.10
2008,08,06,14,33,25.10
2008,08,06,14,34,25.20
2008,08,06,14,35,25.30
2008,08,06,14,36,25.30
2008,08,06,14,37,25.30
2008,08,06,14,38,25.20
2008,08,06,14,39,25.10
2008,08,06,14,40,25.00
2008,08,06,14,41,25.00
2008,08,06,14,42,25.00
2008,08,06,14,43,25.00
2008,08,06,14,44,25.00
2008,08,06,14,45,25.10
2008,08,06,14,46,25.10
2008,08,06,14,47,25.10
2008,08,06,14,48,25.20
2008,08,06,14,49,25.30
2008,08,06,14,50,25.60
2008,08,06,14,51,25.80
2008,08,06,14,52,26.00
2008,08,06,14,53,26.20
2008,08,06,14,54,26.30
2008,08,06,14,55,26.30
2008,08,06,14,56,26.30
2008,08,06,14,57,26.40
2008,08,06,14,58,26.50
2008,08,06,14,59,26.60
2008,08,06,15,00,26.70
2008,08,06,15,01,26.70
2008,08,06,15,02,26.70
2008,08,06,15,03,26.60
2008,08,06,15,04,26.70
2008,08,06,15,05,26.70
2008,08,06,15,06,26.80
2008,08,06,15,07,26.80
2008,08,06,15,08,26.70
2008,08,06,15,09,26.70
2008,08,06,15,10,26.60
2008,08,06,15,11,26.40
2008,08,06,15,12,26.40
2008,08,06,15,13,26.40
2008,08,06,15,14,26.30
2008,08,06,15,15,26.30
2008,08,06,15,16,26.20
2008,08,06,15,17,26.20
2008,08,06,15,18,26.30
2008,08,06,15,19,26.40
2008,08,06,15,20,26.50
2008,08,06,15,21,26.70
2008,08,06,15,22,26.70
2008,08,06,15,23,26.80
2008,08,06,15,24,26.90
2008,08,06,15,25,26.90
2008,08,06,15,26,27.00
2008,08,06,15,27,27.10
2008,08,06,15,28,27.00
2008,08,06,15,29,26.90
2008,08,06,15,30,26.90
2008,08,06,15,31,27.00
2008,08,06,15,32,27.10
2008,08,06,15,33,27.20
2008,08,06,15,34,27.10
2008,08,06,15,35,27.00
2008,08,06,15,36,26.90
2008,08,06,15,37,26.90
2008,08,06,15,38,26.90
2008,08,06,15,39,26.90
2008,08,06,15,40,27.00
2008,08,06,15,41,27.00
2008,08,06,15,42,27.10
2008,08,06,15,43,27.10
2008,08,06,15,44,27.00
2008,08,06,15,45,26.90
2008,08,06,15,46,26.90
2008,08,06,15,47,26.90
2008,08,06,15,48,27.00
2008,08,06,15,49,27.10
2008,08,06,15,50,27.20
2008,08,06,15,51,27.30
2008,08,06,15,52,27.30
2008,08,06,15,53,27.40
2008,08,06,15,54,27.60
2008,08,06,15,55,27.60
2008,08,06,15,56,27.60
2008,08,06,15,57,27.70
2008,08,06,15,58,27.60
2008,08,06,15,59,27.40
2008,08,06,16,00,27.30
2008,08,06,16,01,27.10
2008,08,06,16,02,27.00
2008,08,06,16,03,26.90
2008,08,06,16,04,26.80
2008,08,06,16,05,26.80
2008,08,06,16,06,26.90
2008,08,06,16,07,26.90
2008,08,06,16,08,26.80
2008,08,06,16,09,26.80
2008,08,06,16,10,26.70
2008,08,06,16,11,26.70
2008,08,06,16,12,26.70
2008,08,06,16,13,26.70
2008,08,06,16,14,26.80
2008,08,06,16,15,26.80
2008,08,06,16,16,26.70
2008,08,06,16,17,26.70
2008,08,06,16,18,26.70
2008,08,06,16,19,26.80
2008,08,06,16,20,26.90
2008,08,06,16,21,26.90
2008,08,06,16,22,27.00
2008,08,06,16,23,27.10
2008,08,06,16,24,27.10
2008,08,06,16,25,27.10
2008,08,06,16,26,27.10
2008,08,06,16,27,27.10
2008,08,06,16,28,27.20
2008,08,06,16,29,27.30
2008,08,06,16,30,27.40
2008,08,06,16,31,27.40
2008,08,06,16,32,27.30
2008,08,06,16,33,27.20
2008,08,06,16,34,27.20
2008,08,06,16,35,27.10
2008,08,06,16,36,27.10
2008,08,06,16,37,27.10
2008,08,06,16,38,27.20
2008,08,06,16,39,27.20
2008,08,06,16,40,27.20
2008,08,06,16,41,27.10
2008,08,06,16,42,27.00
2008,08,06,16,43,27.00
2008,08,06,16,44,27.10
2008,08,06,16,45,27.10
2008,08,06,16,46,27.10
2008,08,06,16,47,27.00
2008,08,06,16,48,26.80
2008,08,06,16,49,26.80
2008,08,06,16,50,26.80
2008,08,06,16,51,26.80
2008,08,06,16,52,26.70
2008,08,06,16,53,26.70
2008,08,06,16,54,26.60
2008,08,06,16,55,26.50
2008,08,06,16,56,26.40
2008,08,06,16,57,26.30
2008,08,06,16,58,26.30
2008,08,06,16,59,26.40
2008,08,06,17,00,26.40
2008,08,06,17,01,26.40
2008,08,06,17,02,26.50
2008,08,06,17,03,26.50
2008,08,06,17,04,26.50
2008,08,06,17,05,26.60
2008,08,06,17,06,26.60
2008,08,06,17,07,26.50
2008,08,06,17,08,26.40
2008,08,06,17,09,26.30
2008,08,06,17,10,26.30
2008,08,06,17,11,26.30
2008,08,06,17,12,26.30
2008,08,06,17,13,26.30
2008,08,06,17,14,26.30
2008,08,06,17,15,26.30
2008,08,06,17,16,26.30
2008,08,06,17,17,26.30
2008,08,06,17,18,26.30
2008,08,06,17,19,26.30